DAL168 KJFK-LEBL

Flight info

Callsign DAL168
Flight time N/A
Altitude 37000
Route HAPIE DCT YAHOO DCT KANNI N343B JOOPY/M082F390 NATX ELSOX DCT TAKAS/N0474F390 DCT ALUTA DCT KORER UM616 LUGEN/N0450F250 UM616 TUPAR DCT CNA DCT SECHE DCT AGN DCT TOU DCT LOMRA DCT ROCAN DCT PUMAL
Aircraft A339/H-SADE1E2E3GHIJ3J5M1P2RWXY/LB2D1

Departure

Time 2026-05-09 03:11
Airport John F. Kennedy International Airport (KJFK)

Arrival

Time N/A
Airport Josep Tarradellas Barcelona-El Prat Airport (LEBL)
Time Latitude Longitude Altitude Speed Heading
2026-05-09 02:15 40.64263 -73.77941 29 ft 0 kts 30°
2026-05-09 02:55 40.64259 -73.77944 29 ft 2 kts 30°
2026-05-09 02:55 40.64250 -73.77951 28 ft 2 kts 30°
2026-05-09 02:56 40.64240 -73.77959 28 ft 2 kts 30°
2026-05-09 02:56 40.64230 -73.77967 27 ft 2 kts 21°
2026-05-09 02:56 40.64220 -73.77973 26 ft 2 kts
2026-05-09 02:56 40.64208 -73.77975 27 ft 2 kts 353°
2026-05-09 02:57 40.64197 -73.77974 27 ft 2 kts 343°
2026-05-09 02:57 40.64186 -73.77969 26 ft 2 kts 339°
2026-05-09 02:57 40.64172 -73.77962 27 ft 2 kts 333°
2026-05-09 02:57 40.64159 -73.77953 28 ft 2 kts 330°
2026-05-09 02:58 40.64146 -73.77943 26 ft 3 kts 338°
2026-05-09 02:58 40.64126 -73.77934 27 ft 3 kts
2026-05-09 02:58 40.64104 -73.77937 26 ft 3 kts 26°
2026-05-09 02:58 40.64084 -73.77952 26 ft 3 kts 52°
2026-05-09 02:59 40.64072 -73.77976 26 ft 3 kts 93°
2026-05-09 02:59 40.64075 -73.78002 26 ft 3 kts 155°
2026-05-09 02:59 40.64093 -73.78011 25 ft 3 kts 160°
2026-05-09 02:59 40.64108 -73.78019 28 ft 2 kts 153°
2026-05-09 03:00 40.64113 -73.78022 27 ft 0 kts 153°
2026-05-09 03:03 40.64098 -73.78012 26 ft 6 kts 153°
2026-05-09 03:03 40.64036 -73.77970 29 ft 12 kts 153°
2026-05-09 03:04 40.63954 -73.77942 29 ft 12 kts 172°
2026-05-09 03:04 40.63867 -73.77929 29 ft 13 kts 173°
2026-05-09 03:04 40.63777 -73.77915 29 ft 13 kts 173°
2026-05-09 03:04 40.63686 -73.77900 29 ft 14 kts 173°
2026-05-09 03:05 40.63592 -73.77878 29 ft 14 kts 160°
2026-05-09 03:05 40.63521 -73.77827 28 ft 9 kts 188°
2026-05-09 03:05 40.63448 -73.77873 30 ft 17 kts 211°
2026-05-09 03:05 40.63360 -73.77920 30 ft 1 kts 161°
2026-05-09 03:06 40.63345 -73.77887 31 ft 11 kts 123°
2026-05-09 03:06 40.63303 -73.77793 33 ft 12 kts 120°
2026-05-09 03:06 40.63259 -73.77696 33 ft 13 kts 121°
2026-05-09 03:06 40.63214 -73.77599 35 ft 12 kts 121°
2026-05-09 03:07 40.63174 -73.77510 35 ft 11 kts 121°
2026-05-09 03:07 40.63125 -73.77403 34 ft 17 kts 121°
2026-05-09 03:07 40.63057 -73.77254 33 ft 16 kts 121°
2026-05-09 03:07 40.62997 -73.77123 30 ft 17 kts 122°
2026-05-09 03:08 40.62936 -73.77098 29 ft 8 kts 196°
2026-05-09 03:08 40.62916 -73.77111 30 ft 0 kts 207°
2026-05-09 03:08 40.62897 -73.77126 30 ft 11 kts 210°
2026-05-09 03:09 40.62834 -73.77202 29 ft 13 kts 253°
2026-05-09 03:09 40.62858 -73.77306 31 ft 12 kts 300°
2026-05-09 03:09 40.62879 -73.77354 32 ft 0 kts 300°
2026-05-09 03:11 40.63001 -73.77627 35 ft 75 kts 300°
2026-05-09 03:11 40.63400 -73.78500 28 ft 145 kts 301°
2026-05-09 03:11 40.63999 -73.79808 273 ft 178 kts 301°
2026-05-09 03:11 40.64683 -73.81275 743 ft 199 kts 300°
2026-05-09 03:12 40.65247 -73.82967 1353 ft 209 kts 281°
2026-05-09 03:12 40.65267 -73.84897 2066 ft 216 kts 261°
2026-05-09 03:12 40.64694 -73.86752 2735 ft 225 kts 232°
2026-05-09 03:12 40.63471 -73.88042 3449 ft 231 kts 204°
2026-05-09 03:13 40.60290 -73.87921 4780 ft 245 kts 159°
2026-05-09 03:13 40.58744 -73.86827 5215 ft 260 kts 148°
2026-05-09 03:13 40.57043 -73.85864 5556 ft 271 kts 159°
2026-05-09 03:14 40.55474 -73.84493 6124 ft 274 kts 133°
2026-05-09 03:14 40.54481 -73.82366 6703 ft 278 kts 111°
2026-05-09 03:14 40.53963 -73.79845 6982 ft 294 kts 101°
2026-05-09 03:14 40.53597 -73.77129 7245 ft 309 kts 99°
2026-05-09 03:15 40.53199 -73.74282 7495 ft 324 kts 101°
2026-05-09 03:15 40.52721 -73.71321 7757 ft 338 kts 103°
2026-05-09 03:15 40.52175 -73.68257 8017 ft 351 kts 103°
2026-05-09 03:15 40.51582 -73.65097 8277 ft 362 kts 104°
2026-05-09 03:16 40.50976 -73.61920 8513 ft 357 kts 104°
2026-05-09 03:16 40.50396 -73.58894 8749 ft 326 kts 104°
2026-05-09 03:16 40.49866 -73.56136 8976 ft 296 kts 104°
2026-05-09 03:16 40.49378 -73.53595 9216 ft 286 kts 104°
2026-05-09 03:17 40.48887 -73.51038 9470 ft 290 kts 104°
2026-05-09 03:17 40.48393 -73.48460 9871 ft 292 kts 104°
2026-05-09 03:17 40.47893 -73.45858 10371 ft 300 kts 104°
2026-05-09 03:17 40.47368 -73.43125 10539 ft 317 kts 104°
2026-05-09 03:18 40.46822 -73.40284 10704 ft 334 kts 104°
2026-05-09 03:18 40.46243 -73.37277 10918 ft 342 kts 104°
2026-05-09 03:18 40.45660 -73.34249 11165 ft 344 kts 104°
2026-05-09 03:18 40.45071 -73.31202 11777 ft 344 kts 104°
2026-05-09 03:19 40.44480 -73.28142 12305 ft 347 kts 104°
2026-05-09 03:19 40.43883 -73.25063 12838 ft 350 kts 104°
2026-05-09 03:19 40.43284 -73.21976 13345 ft 352 kts 104°
2026-05-09 03:19 40.42676 -73.18847 13852 ft 355 kts 104°
2026-05-09 03:20 40.42063 -73.15695 14346 ft 358 kts 104°
2026-05-09 03:20 40.41453 -73.12567 14833 ft 360 kts 104°
2026-05-09 03:20 40.40829 -73.09371 15330 ft 363 kts 104°
2026-05-09 03:20 40.40200 -73.06155 15793 ft 365 kts 104°
2026-05-09 03:21 40.39566 -73.02917 16259 ft 368 kts 104°
2026-05-09 03:21 40.39096 -72.99612 16689 ft 371 kts 94°
2026-05-09 03:21 40.39187 -72.96228 17151 ft 373 kts 81°
2026-05-09 03:21 40.39820 -72.92928 17574 ft 375 kts 72°
2026-05-09 03:22 40.40596 -72.89648 17999 ft 378 kts 73°
2026-05-09 03:22 40.41359 -72.86339 18437 ft 380 kts 73°
2026-05-09 03:22 40.42115 -72.83053 18859 ft 382 kts 71°
2026-05-09 03:22 40.42945 -72.79727 19233 ft 385 kts 70°
2026-05-09 03:23 40.43795 -72.76382 19619 ft 387 kts 69°
2026-05-09 03:23 40.44624 -72.73006 20000 ft 389 kts 69°
2026-05-09 03:23 40.45440 -72.69605 20357 ft 392 kts 74°
2026-05-09 03:23 40.46118 -72.66133 20780 ft 394 kts 77°
2026-05-09 03:24 40.46768 -72.62630 21167 ft 396 kts 76°
2026-05-09 03:24 40.47464 -72.59116 21583 ft 399 kts 75°
2026-05-09 03:24 40.48196 -72.55645 21982 ft 401 kts 74°
2026-05-09 03:24 40.48969 -72.52116 22368 ft 403 kts 74°
2026-05-09 03:25 40.49759 -72.48568 22766 ft 406 kts 74°
2026-05-09 03:25 40.50555 -72.45003 23148 ft 408 kts 74°
2026-05-09 03:25 40.51357 -72.41411 23524 ft 411 kts 74°
2026-05-09 03:25 40.52160 -72.37798 23910 ft 413 kts 74°
2026-05-09 03:26 40.52966 -72.34163 24289 ft 415 kts 74°
2026-05-09 03:26 40.53776 -72.30508 24664 ft 418 kts 74°
2026-05-09 03:26 40.54590 -72.26830 25032 ft 420 kts 74°
2026-05-09 03:26 40.55394 -72.23181 25385 ft 422 kts 74°
2026-05-09 03:27 40.56211 -72.19462 25740 ft 425 kts 74°
2026-05-09 03:27 40.57031 -72.15719 26088 ft 427 kts 74°
2026-05-09 03:27 40.57855 -72.11956 26416 ft 429 kts 74°
2026-05-09 03:27 40.58681 -72.08178 26761 ft 432 kts 74°
2026-05-09 03:28 40.59490 -72.04427 27254 ft 439 kts 69°
2026-05-09 03:28 40.60351 -72.00451 26906 ft 461 kts 68°
2026-05-09 03:28 40.61233 -71.96413 26998 ft 470 kts 68°
2026-05-09 03:28 40.62143 -71.92233 27094 ft 479 kts 68°
2026-05-09 03:29 40.63065 -71.87981 27187 ft 487 kts 68°
2026-05-09 03:29 40.64000 -71.83652 27301 ft 496 kts 69°
2026-05-09 03:29 40.64946 -71.79259 27398 ft 504 kts 69°
2026-05-09 03:29 40.65908 -71.74785 27560 ft 510 kts 69°
2026-05-09 03:30 40.66875 -71.70274 27888 ft 512 kts 69°
2026-05-09 03:30 40.67828 -71.65816 28188 ft 515 kts 69°
2026-05-09 03:30 40.68802 -71.61257 28485 ft 517 kts 69°
2026-05-09 03:30 40.69781 -71.56669 28777 ft 520 kts 69°
2026-05-09 03:31 40.70761 -71.52076 29214 ft 520 kts 69°
2026-05-09 03:31 40.71741 -71.47467 29472 ft 523 kts 69°
2026-05-09 03:31 40.72725 -71.42830 29746 ft 526 kts 69°
2026-05-09 03:31 40.73711 -71.38168 30033 ft 529 kts 69°
2026-05-09 03:32 40.74690 -71.33532 30263 ft 532 kts 69°
2026-05-09 03:32 40.75686 -71.28806 30470 ft 535 kts 69°
2026-05-09 03:32 40.76687 -71.24045 30684 ft 539 kts 69°
2026-05-09 03:32 40.77685 -71.19282 30898 ft 542 kts 70°
2026-05-09 03:33 40.78690 -71.14477 31122 ft 545 kts 70°
2026-05-09 03:33 40.79702 -71.09629 31330 ft 549 kts 70°
2026-05-09 03:33 40.80718 -71.04750 31555 ft 552 kts 70°
2026-05-09 03:33 40.81736 -70.99851 31812 ft 555 kts 70°
2026-05-09 03:34 40.82758 -70.94926 32075 ft 557 kts 70°
2026-05-09 03:34 40.83781 -70.89982 32260 ft 560 kts 70°
2026-05-09 03:34 40.84806 -70.85008 32447 ft 563 kts 70°
2026-05-09 03:34 40.85819 -70.80077 32626 ft 566 kts 70°
2026-05-09 03:35 40.86855 -70.75027 32767 ft 569 kts 70°
2026-05-09 03:35 40.87890 -70.69969 32930 ft 571 kts 70°
2026-05-09 03:35 40.88926 -70.64893 33055 ft 574 kts 70°
2026-05-09 03:35 40.89962 -70.59806 33191 ft 576 kts 70°
2026-05-09 03:36 40.91004 -70.54672 33313 ft 577 kts 70°
2026-05-09 03:36 40.92043 -70.49541 33394 ft 580 kts 70°
2026-05-09 03:36 40.93086 -70.44381 33570 ft 581 kts 71°
2026-05-09 03:36 40.94127 -70.39220 33755 ft 580 kts 71°
2026-05-09 03:37 40.95166 -70.34052 33879 ft 581 kts 71°
2026-05-09 03:37 40.96204 -70.28877 34004 ft 582 kts 71°
2026-05-09 03:37 40.97240 -70.23698 34130 ft 583 kts 71°
2026-05-09 03:37 40.98273 -70.18515 34295 ft 582 kts 71°
2026-05-09 03:38 40.99303 -70.13335 34478 ft 581 kts 71°
2026-05-09 03:38 41.00317 -70.08228 34632 ft 580 kts 71°
2026-05-09 03:38 41.01339 -70.03067 34789 ft 580 kts 71°
2026-05-09 03:38 41.02359 -69.97908 34944 ft 579 kts 71°
2026-05-09 03:39 41.03377 -69.92741 35116 ft 578 kts 71°
2026-05-09 03:39 41.04389 -69.87590 35257 ft 578 kts 71°
2026-05-09 03:39 41.05402 -69.82442 35418 ft 576 kts 70°
2026-05-09 03:39 41.06681 -69.77446 35546 ft 569 kts 61°
2026-05-09 03:40 41.08427 -69.72778 35686 ft 560 kts 52°
2026-05-09 03:40 41.10553 -69.68504 35819 ft 551 kts 44°
2026-05-09 03:40 41.12921 -69.64538 35944 ft 548 kts 43°
2026-05-09 03:40 41.15286 -69.60579 36078 ft 548 kts 43°
2026-05-09 03:41 41.17645 -69.56604 36237 ft 548 kts 44°
2026-05-09 03:41 41.19994 -69.52635 36405 ft 546 kts 44°
2026-05-09 03:41 41.22336 -69.48667 36557 ft 546 kts 44°
2026-05-09 03:41 41.24677 -69.44700 36676 ft 545 kts 44°
2026-05-09 03:42 41.27025 -69.40717 36798 ft 545 kts 44°
2026-05-09 03:42 41.29363 -69.36746 36934 ft 545 kts 44°
2026-05-09 03:42 41.34014 -69.28832 37039 ft 544 kts 45°
2026-05-09 03:43 41.38650 -69.20922 37026 ft 541 kts 45°
2026-05-09 03:43 41.43291 -69.12985 37023 ft 543 kts 45°
2026-05-09 03:44 41.47935 -69.05018 37042 ft 543 kts 45°
2026-05-09 03:44 41.52517 -68.97142 37033 ft 538 kts 46°
2026-05-09 03:45 41.57114 -68.89216 37030 ft 540 kts 46°
2026-05-09 03:45 41.61715 -68.81260 37027 ft 542 kts 45°
2026-05-09 03:46 41.66282 -68.73350 37021 ft 538 kts 46°
2026-05-09 03:46 41.70852 -68.65405 37023 ft 539 kts 46°
2026-05-09 03:47 41.75425 -68.57437 37019 ft 539 kts 46°
2026-05-09 03:47 41.79985 -68.49470 37018 ft 538 kts 46°
2026-05-09 03:48 41.84531 -68.41507 37021 ft 538 kts 46°
2026-05-09 03:48 41.89073 -68.33532 37024 ft 539 kts 46°
2026-05-09 03:49 41.93620 -68.25525 37026 ft 538 kts 47°
2026-05-09 03:49 41.98130 -68.17557 36999 ft 534 kts 47°
2026-05-09 03:50 42.02637 -68.09585 37009 ft 536 kts 47°
2026-05-09 03:50 42.07106 -68.01654 37041 ft 536 kts 47°
2026-05-09 03:51 42.11581 -67.93687 37013 ft 531 kts 47°
2026-05-09 03:51 42.16046 -67.85725 37008 ft 533 kts 47°
2026-05-09 03:52 42.20511 -67.77737 37012 ft 533 kts 47°
2026-05-09 03:52 42.24935 -67.69802 36995 ft 531 kts 48°
2026-05-09 03:53 42.29373 -67.61820 37004 ft 531 kts 48°
2026-05-09 03:53 42.33811 -67.53819 36994 ft 532 kts 48°
2026-05-09 03:54 42.38238 -67.45815 37004 ft 529 kts 48°
2026-05-09 03:54 42.42650 -67.37816 36998 ft 530 kts 48°
2026-05-09 03:55 42.47053 -67.29814 36996 ft 530 kts 48°
2026-05-09 03:55 42.51452 -67.21796 36996 ft 530 kts 48°
2026-05-09 03:56 42.55816 -67.13821 36998 ft 530 kts 49°
2026-05-09 03:56 42.60209 -67.05776 36998 ft 530 kts 49°
2026-05-09 03:57 42.64524 -66.97646 37005 ft 531 kts 52°
2026-05-09 03:57 42.68640 -66.89328 36994 ft 529 kts 51°
2026-05-09 03:58 42.72795 -66.81067 36993 ft 529 kts 51°
2026-05-09 03:58 42.76918 -66.72854 37022 ft 529 kts 51°
2026-05-09 03:59 42.81048 -66.64593 36987 ft 527 kts 51°
2026-05-09 03:59 42.85168 -66.56329 36987 ft 527 kts 51°
2026-05-09 04:00 42.89285 -66.48048 36988 ft 527 kts 51°
2026-05-09 04:00 42.93401 -66.39748 36993 ft 527 kts 52°
2026-05-09 04:01 42.97476 -66.31503 36991 ft 527 kts 52°
2026-05-09 04:01 43.01574 -66.23186 36984 ft 527 kts 52°
2026-05-09 04:02 43.05659 -66.14862 37000 ft 527 kts 52°
2026-05-09 04:02 43.09738 -66.06522 36992 ft 527 kts 52°
2026-05-09 04:03 43.13804 -65.98186 36986 ft 527 kts 52°
2026-05-09 04:03 43.17871 -65.89824 36966 ft 527 kts 52°
2026-05-09 04:04 43.21244 -65.82871 36992 ft 527 kts 52°
2026-05-09 04:04 43.25303 -65.74484 36970 ft 527 kts 53°
2026-05-09 04:05 43.29351 -65.66094 36967 ft 527 kts 53°
2026-05-09 04:05 43.33364 -65.57754 36969 ft 527 kts 53°
2026-05-09 04:06 43.37404 -65.49333 36965 ft 526 kts 53°
2026-05-09 04:06 43.41425 -65.40927 36957 ft 526 kts 53°
2026-05-09 04:07 43.45430 -65.32536 36967 ft 525 kts 54°
2026-05-09 04:07 43.49429 -65.24128 36953 ft 524 kts 54°
2026-05-09 04:08 43.53418 -65.15717 36948 ft 524 kts 54°
2026-05-09 04:08 43.57398 -65.07301 36967 ft 523 kts 54°
2026-05-09 04:09 43.61343 -64.98938 36947 ft 523 kts 54°
2026-05-09 04:09 43.65307 -64.90508 36941 ft 523 kts 54°
2026-05-09 04:10 43.69263 -64.82071 36938 ft 523 kts 54°
2026-05-09 04:10 43.73212 -64.73628 36934 ft 523 kts 54°
2026-05-09 04:11 43.77152 -64.65176 36918 ft 523 kts 55°
2026-05-09 04:11 43.81084 -64.56717 36923 ft 523 kts 55°
2026-05-09 04:12 43.85023 -64.48220 36923 ft 524 kts 55°
2026-05-09 04:12 43.88958 -64.39706 36922 ft 524 kts 55°
2026-05-09 04:13 43.92866 -64.31225 36926 ft 524 kts 55°
2026-05-09 04:13 43.96787 -64.22691 36934 ft 524 kts 55°
2026-05-09 04:14 44.00705 -64.14141 36934 ft 525 kts 56°
2026-05-09 04:14 44.04618 -64.05572 36929 ft 525 kts 56°
2026-05-09 04:15 44.08506 -63.97035 36924 ft 525 kts 56°
2026-05-09 04:15 44.12410 -63.88440 36922 ft 525 kts 56°
2026-05-09 04:16 44.16305 -63.79836 36916 ft 525 kts 56°
2026-05-09 04:16 44.20198 -63.71210 36906 ft 526 kts 56°
2026-05-09 04:17 44.24086 -63.62570 36913 ft 526 kts 56°
2026-05-09 04:17 44.27967 -63.53920 36904 ft 526 kts 57°
2026-05-09 04:18 44.31838 -63.45266 36895 ft 525 kts 57°
2026-05-09 04:18 44.35687 -63.36637 36891 ft 525 kts 57°
2026-05-09 04:19 44.39544 -63.27966 36902 ft 525 kts 57°
2026-05-09 04:19 44.43389 -63.19289 36898 ft 525 kts 57°
2026-05-09 04:20 44.47228 -63.10603 36879 ft 525 kts 57°
2026-05-09 04:20 44.51069 -63.01886 36899 ft 525 kts 58°
2026-05-09 04:21 44.54902 -62.93165 36893 ft 525 kts 58°
2026-05-09 04:22 44.60641 -62.80047 36891 ft 525 kts 58°
2026-05-09 04:22 44.64457 -62.71294 36899 ft 525 kts 58°
2026-05-09 04:23 44.68239 -62.62594 36889 ft 525 kts 58°
2026-05-09 04:23 44.72034 -62.53832 36887 ft 525 kts 58°
2026-05-09 04:24 44.75824 -62.45059 36886 ft 524 kts 58°
2026-05-09 04:24 44.79608 -62.36275 36853 ft 525 kts 59°
2026-05-09 04:25 44.83384 -62.27478 36866 ft 526 kts 59°
2026-05-09 04:25 44.87169 -62.18633 36870 ft 527 kts 59°
2026-05-09 04:26 44.90955 -62.09758 36869 ft 527 kts 59°
2026-05-09 04:26 44.94706 -62.00942 36867 ft 527 kts 60°
2026-05-09 04:27 44.98477 -61.92044 36870 ft 528 kts 60°
2026-05-09 04:27 45.02242 -61.83136 36866 ft 528 kts 60°
2026-05-09 04:28 45.06003 -61.74211 36857 ft 528 kts 60°
2026-05-09 04:28 45.09753 -61.65279 36853 ft 528 kts 60°
2026-05-09 04:29 45.13497 -61.56336 36853 ft 528 kts 60°
2026-05-09 04:29 45.17238 -61.47371 36850 ft 528 kts 60°
2026-05-09 04:30 45.20971 -61.38397 36847 ft 528 kts 60°
2026-05-09 04:30 45.24672 -61.29472 36847 ft 528 kts 60°
2026-05-09 04:31 45.28394 -61.20466 36851 ft 528 kts 60°
2026-05-09 04:31 45.32107 -61.11456 36845 ft 527 kts 61°
2026-05-09 04:32 45.35806 -61.02447 36827 ft 527 kts 61°
2026-05-09 04:32 45.39474 -60.93488 36824 ft 527 kts 61°
2026-05-09 04:33 45.43156 -60.84464 36813 ft 526 kts 61°
2026-05-09 04:33 45.46830 -60.75436 36804 ft 526 kts 62°
2026-05-09 04:34 45.50491 -60.66403 36799 ft 527 kts 62°
2026-05-09 04:34 45.54150 -60.57347 36804 ft 527 kts 62°
2026-05-09 04:35 45.57784 -60.48327 36805 ft 527 kts 62°
2026-05-09 04:35 45.61432 -60.39240 36805 ft 527 kts 62°
2026-05-09 04:36 45.65073 -60.30139 36809 ft 528 kts 62°
2026-05-09 04:36 45.68717 -60.21003 36813 ft 528 kts 62°